Погода в Бордж-Седрии

Тунис     36°42′48″N   10°22′10″E
темп.,
°C
ветер,
м/с
пор.,
м/с
влажн.,
%
обл.,
%
осадки,
мм/ч
давл.,
гПа
погр.,
м
18 мая, вт
вт1801:00+18сз5954100 0.0 1017419
04:00+17сз5116274 0.0 1018503
07:00+18зсз585933 0.0 1019631
10:00+23ссз463345 0.0 1019887
13:00+24ссв55361 0.0 1018904
16:00+24св44415 0.0 1017674
19:00+19св35604 0.0 1017348
22:00+19ссв125894 0.0 1018132
19 мая, ср
ср1901:00+19ссз11560 0.0 101763
04:00+18зсз11543 0.0 101744
07:00+19зсз23451 0.0 1018226
10:00+25ссз34275 0.0 1018819
13:00+27ссв553088 0.0 10171100
16:00+26ссз783141 0.0 1017957
19:00+22сз695185 0.0 1018664
22:00+18зсз61064100 0.0 1021511
20 мая, чт
чт2001:00+17сз71370100 0.0 1020697
04:00+16зсз7127086 0.0 1020716
07:00+17зсз711605 0.0 1021935
10:00+22сз8113746 0.0 10211326
13:00+24сз9113295 0.0 10201521
16:00+22сз9123377 0.0 10211387
19:00+19сз8124048 0.0 10221020
22:00+17зсз6115895 0.0 1023709
21 мая, пт
пт2101:00+15зсз51064100 0.0 1022604
04:00+14з357099 0.0 1022289
07:00+16з2466100 0.0 1022309
10:00+21всв224611 0.0 1022966
13:00+24св54405 0.0 10201011
16:00+23св554424 0.0 1019719
19:00+22юв46425 0.0 1018326
22:00+18ююв486140 0.0 1018271
22 мая, сб
сб2201:00+17ююв36625 0.0 1016222
04:00+17ю35645 0.0 1014152
07:00+20ю35556 0.0 1014217
10:00+28ю46325 0.0 1013531
13:00+34ю24235 0.0 10131734
16:00+29всв893796 0.0 1013605
19:00+24в46546 0.0 1015271
22:00+21вюв23676 0.0 1016110